Home > Weather > Linz > Past weeks

Flag for Austria Weather for the Past 2 Weeks in Linz, Upper Austria, Austria

Now
48 °F

Light rain. Broken clouds.


Feels Like: 45 °F
Forecast: 44 / 61 °F
Wind: 8 mph from West

Location: Linz / Hoersching-Flughafen

Current Time: May 4, 2016 at 6:24:04 PM

Latest Report: May 4, 2016 at 5:50 PM


Visibility: N/A

Pressure: 30.30 "Hg

Humidity: 87%

Dew Point: 45 °F

Location of LinzLocation

Historic Weather in Linz — Graph

°F

Linz Temperature Yesterday

Maximum temperature yesterday: 64 °F (at 2:20 PM)
Minimum temperature yesterday: 45 °F (at 4:50 AM)
Average temperature yesterday: 54 °F

High & Low Weather Summary for the Past Weeks

 TemperatureHumidityPressure
High68 °F (Apr 22, 3:50 PM)100% (Apr 26, 10:20 PM)30.36 "Hg (Apr 26, 10:20 PM)
Low30 °F (Apr 28, 1:20 AM)21% (Apr 30, 5:20 PM)29.62 "Hg (Apr 23, 4:20 PM)
Average48 °F69%29.99 "Hg
* Reported Apr 19 4:20 PM — May 4 4:20 PM, Linz, Weather by CustomWeather, © 2016

Note: Actual official high and low records may vary slightly from our data, if they occured in-between our weather recording intervals... More about our weather records

Advertising

Linz Weather History for the Previous 24 Hours

Scroll right to see more
 ConditionsComfort  
Time TempWeatherWind HumidityBarometerVisibility
4:20 PM
Wed, May 4
48 °FLight rain. Broken clouds.9 mph87%30.27 "HgN/A
3:50 PM48 °FLight rain. Broken clouds.9 mph87%30.30 "HgN/A
3:20 PM48 °FLight rain. Partly sunny.12 mph87%30.30 "HgN/A
2:50 PM48 °FLight rain. Partly sunny.13 mph87%30.30 "HgN/A
2:20 PM48 °FLight rain. Partly sunny.13 mph87%30.30 "HgN/A
12:50 PM46 °FLight rain. Partly sunny.8 mph93%30.27 "HgN/A
12:20 PM46 °FLight rain. Partly sunny.10 mph87%30.27 "HgN/A
11:50 AM46 °FLight rain. Partly sunny.12 mph87%30.27 "HgN/A
11:20 AM46 °FLight rain. Partly sunny.14 mph87%30.27 "HgN/A
10:50 AM46 °FLight rain. Partly sunny.14 mph87%30.27 "HgN/A
9:50 AM46 °FLight rain. Partly sunny.14 mph87%30.27 "HgN/A
9:20 AM46 °FLight rain. Partly sunny.13 mph87%30.24 "HgN/A
8:50 AM46 °FLight rain. Partly sunny.12 mph87%30.24 "HgN/A
8:20 AM46 °FLight rain. Partly sunny.10 mph87%30.24 "HgN/A
7:50 AM46 °FLight rain. Partly sunny.12 mph87%30.21 "HgN/A
7:20 AM46 °FLight rain. Partly sunny.14 mph87%30.21 "HgN/A
6:50 AM46 °FLight rain. Partly sunny.16 mph87%30.21 "HgN/A
6:20 AM46 °FLight rain. Overcast.16 mph87%30.18 "HgN/A
5:50 AM48 °FLight rain. Overcast.18 mph82%30.18 "HgN/A
5:20 AM48 °FPassing clouds.17 mph82%30.15 "HgN/A
4:50 AM48 °FPassing clouds.15 mph87%30.15 "HgN/A
4:20 AM50 °FPassing clouds.16 mph82%30.15 "HgN/A
3:50 AM50 °FPassing clouds.15 mph82%30.15 "HgN/A
3:20 AM50 °FPassing clouds.16 mph82%30.12 "HgN/A
2:50 AM50 °FPassing clouds.18 mph82%30.12 "HgN/A
2:20 AM50 °FPassing clouds.17 mph82%30.12 "HgN/A
1:50 AM50 °FPartly cloudy.18 mph82%30.12 "HgN/A
1:20 AM50 °FPassing clouds.14 mph82%30.09 "HgN/A
12:50 AM52 °FPartly cloudy.16 mph77%30.09 "HgN/A
11:50 PM
Tue, May 3
52 °FPartly cloudy.16 mph77%30.09 "HgN/A
11:20 PM52 °FPassing clouds.15 mph77%30.07 "HgN/A
10:50 PM52 °FPassing clouds.16 mph82%30.07 "HgN/A
10:20 PM52 °FPassing clouds.15 mph82%30.07 "HgN/A
9:50 PM52 °FSprinkles. Passing clouds.18 mph82%30.04 "HgN/A
9:20 PM54 °FRain showers. Passing clouds.20 mph77%30.04 "HgN/A
8:50 PM55 °FPartly sunny.15 mph67%30.01 "HgN/A
8:20 PM57 °FSprinkles. Scattered clouds.15 mph63%30.01 "HgN/A
7:50 PM57 °FBroken clouds.13 mph59%29.98 "HgN/A
7:20 PM57 °FScattered clouds.13 mph63%29.98 "HgN/A
6:50 PM59 °FScattered clouds.5 mph63%29.95 "HgN/A
6:20 PM59 °FPassing clouds.7 mph63%29.95 "HgN/A
Weather by CustomWeather, © 2016

See weather overviewHow to use our weather pages